Regional Weather Roundup
Issued by NWS

Home | Current Version | Previous Version | Text Only | Print | Product List | Glossary On
Versions: 1 2 3 4 5 6 7 8 9 10 11 12 13 14 15 16 17 18 19 20 21 22 23 24 25 26 27 28 29 30 31 32 33 34 35 36 37 38 39 40 41 42 43 44 45 46 47 48 49 50
000
ASUS43 KDTX 201410
RWRMI
MICHIGAN HOURLY REGIONAL WEATHER ROUNDUP
NATIONAL WEATHER SERVICE DETROIT/PONTIAC MI
1000 AM EDT MON OCT 20 2014

NOTE: "FAIR" INDICATES FEW OR NO CLOUDS BELOW 12,000 FEET WITH NO
SIGNIFICANT WEATHER AND/OR OBSTRUCTION TO VISIBILITY.

MIZ047>049-052>055-059>063-066>070-074>076-081>083-201500-
SOUTHEAST LOWER MICHIGAN

CITY           SKY/WX    TMP DP  RH WIND       PRES   REMARKS
ADRIAN         PTSUNNY   50  44  80 SW13      29.86F
ALMA           CLOUDY    49  46  88 SW6       29.81S
ANN ARBOR      MOSUNNY   50  43  77 SW10      29.84F
BAD AXE        CLOUDY    47  47 100 SW6       29.81F
DETROIT CITY   CLOUDY    52  44  74 MISG      29.86F
DETROIT        PTSUNNY   50  45  83 S13       29.86F
FLINT          PTSUNNY   52  44  74 SW9G17    29.83S
GROSSE ILE     CLOUDY    50  45  81 S8        29.86S
HILLSDALE      MOSUNNY   51  47  85 SW7       29.85S
HOWELL         MOSUNNY   49  46  87 SW8       29.83S

CITY           SKY/WX    TMP DP  RH WIND       PRES   REMARKS
JACKSON        MOSUNNY   49  44  83 SW10      29.84R
LAMBERTVILLE   CLOUDY    50  45  81 SW5       29.87F
LANSING        MOSUNNY   50  44  80 SW10      29.83R
LAPEER         NOT AVBL
MASON          MOSUNNY   49  45  85 SW3       29.83R
MONROE         CLOUDY    52  45  76 SW8       29.85F
MT. CLEMENS    CLOUDY    50  44  81 SW9       29.82F
PONTIAC        PTSUNNY   48  44  86 S6        29.83F
PORT HOPE        N/A     48  45  89 SW8       29.78F
PORT HURON     CLOUDY    48  46  93 S8        29.84F
TRI CITIES     CLOUDY    51  45  79 SW9       29.81S
YPSILANTI      PTSUNNY   53  44  71 S14       29.85F
$$
MIZ043>046-050>051-056>058-064>065-071>073-077>080-201500-
SOUTHWEST LOWER MICHIGAN

CITY           SKY/WX    TMP DP  RH WIND       PRES   REMARKS
BATTLE CREEK   MOSUNNY   50  44  80 SW13      29.83S
BENTON HARBOR  CLOUDY    48  46  93 S6        29.83R
BIG RAPIDS     FOG       47  47 100 CALM      29.79R VSB 1/4
COLDWATER      PTSUNNY   52  46  80 SW9       29.84S
HOLLAND        CLOUDY    51  47  86 S8        29.81S
GRAND RAPIDS   MOSUNNY   51  46  83 SW12      29.80F
KALAMAZOO      MOSUNNY   51  46  83 S12       29.83F
MARSHALL       MOSUNNY   49  44  83 S7        29.83F
MUSKEGON       MOSUNNY   56  48  74 W7        29.80R
$$
MIZ016>042-201500-
NORTHERN LOWER MICHIGAN

CITY           SKY/WX    TMP DP  RH WIND       PRES   REMARKS
ALPENA         CLOUDY    47  45  93 SW6       29.76S
BEAVER ISLAND  CLOUDY    48  43  84 NW10      29.79R
BELLAIRE       CLOUDY    50  47  90 CALM      29.77S
CADILLAC       CLOUDY    49  47  93 SW3       29.78R
CHARLEVOIX     CLOUDY    51  48  89 NW9       29.81R
FRANKFORT      CLOUDY    53  47  82 N3        29.79R
GAYLORD        CLOUDY    47  45  93 W6        29.77R
GRAYLING       CLOUDY    49  48  96 W3        29.78S
HARBOR SPRINGS CLOUDY    52  46  82 W5        29.76S
HOUGHTON LAKE  CLOUDY    49  46  90 SW6       29.78R
MANISTEE       CLOUDY    45  43  93 CALM      29.80R
OSCODA         CLOUDY    47  46  97 SW7       29.77S FOG
PELLSTON       CLOUDY    50  47  89 NW7       29.76R
TRAVERSE CITY  CLOUDY    51  47  86 W3        29.78R
$$
MIZ007>008-015-201500-
EASTERN UPPER MICHIGAN

CITY           SKY/WX    TMP DP  RH WIND       PRES   REMARKS
KINROSS        CLOUDY    46  46 100 NW7       29.75R
MACKINAC ISLAN CLOUDY    49  47  95 NW5       29.75S
NEWBERRY       CLOUDY    44  43  98 NW8       29.77R FOG
S. S. MARIE    LGT RAIN  47  45  93 W3        29.74R FOG
$$
MIZ004>006-011>014-085-201500-
CENTRAL UPPER MICHIGAN

CITY           SKY/WX    TMP DP  RH WIND       PRES   REMARKS
MANISTIQUE     CLOUDY    45  42  91 NW12G18   29.78S
ESCANABA       CLOUDY    46  41  81 NW6       29.82R
MENOMINEE      CLOUDY    46  43  87 N9        29.83R
SAWYER-GWINN   CLOUDY    45  39  81 NW8       29.82R
$$
MIZ001>003-009>011-084-201500-
WESTERN UPPER MICHIGAN

CITY           SKY/WX    TMP DP  RH WIND       PRES   REMARKS
IRON MOUNTAIN  CLOUDY    46  41  82 NW8       29.84R
HOUGHTON       CLOUDY    46  42  86 NW14      29.85R
COPPER HARBOR    N/A     46  42  86 NE17      29.83R
IRONWOOD       CLOUDY    46  45  93 N3        29.88R
$$

ABBREVIATIONS USED IN REMARKS
   TC - TEMPERATURE IN CELSIUS
  WCI - WIND CHILL INDEX
   HX - HEAT INDEX
  VSB - VISIBILITY




USA.gov is the U.S. government's official web portal to all federal, state and local government web resources and services.